sat.trackr.live / text

‹ back to catalog

STARLINK-5603

NORAD 55762 · 2023-028X

PAYLOAD ACTIVE UNKNOWN

§ Identity

Operator
Country
US
Launch date
2023-03-03
Launch site
AFWTR
Launch vehicle
Mass (kg)
RCS (m²)

Purposes: comms

External: N2YO · Heavens-Above · Gunter

§ Orbital elements

Epoch: 2026-09-20T22:00:47.904768Z

Period
96.11 min
Inclination
69.9976°
Eccentricity
0.0002680
Mean motion
14.98330017 rev/d
Perigee alt
570.2 km
Apogee alt
573.9 km
Semi-major
6,950.2 km
B*
-1.5633e-6
RAAN
92.3260°
Arg perigee
270.5166°
Mean anomaly
89.5686°
Rev number
19,577

§ Raw data

STARLINK-56031 55762U 23028X   26263.91722112 -.00000112  00000+0 -15633-5 0  99922 55762  69.9976  92.3260 0002680 270.5166  89.5686 14.98330017195775

JSON: /api/v1/satellites/55762 · /tle

For live sub-satellite position, see the globe view (requires WebGL).

§ Visibility from observer

Set your observer location to see the next 7 days of passes ≥ 10°. The values pass through the URL so the page stays shareable.

No JS? Fill the form by hand. The geolocation button needs JavaScript.